• Processing (Info)

  • MPEC 2014-B39 : 2014 BR8

    The following Minor Planet Electronic Circular may be linked-to from your own Web pages, but must not otherwise be redistributed electronically.

    A form allowing access to any MPEC is at the bottom of this page.


    Read MPEC 2014-B38 Read MPEC 2014-B40


    M.P.E.C. 2014-B39                                Issued 2014 Jan. 24, 21:54 UT
    
         The Minor Planet Electronic Circulars contain information on unusual
             minor planets and routine data on comets.  They are published
       on behalf of Commission 20 of the International Astronomical Union by the
              Minor Planet Center, Smithsonian Astrophysical Observatory,
                              Cambridge, MA 02138, U.S.A.
    
                 Prepared using the Tamkin Foundation Computer Network
    
                                  MPC@CFA.HARVARD.EDU
                URL https://www.minorplanetcenter.net/    ISSN 1523-6714
    
                                       2014 BR8
    
    Observations:
         K14B08R* C2014 01 23.98019 08 09 55.03 +28 04 49.2          15.5 VrEB039J75
         K14B08R  C2014 01 23.98637 08 09 52.27 +28 02 50.9          15.5 VrEB039J75
         K14B08R  C2014 01 23.99253 08 09 49.48 +28 00 51.7          15.5 VrEB039J75
         K14B08R  C2014 01 24.09856 08 09 02.80 +27 26 53.1          15.8 VrEB039J75
         K14B08R  C2014 01 24.09966 08 09 02.35 +27 26 32.1          15.6 VrEB039J75
         K14B08R  C2014 01 24.10127 08 09 01.66 +27 26 01.1          15.5 VrEB039J75
         K14B08R  C2014 01 24.10239 08 09 01.14 +27 25 39.7          15.7 VrEB039J75
         K14B08R  C2014 01 24.10292 08 09 00.95 +27 25 29.0          15.5 VrEB039J75
         K14B08R KC2014 01 24.28855008 07 53.80 +26 27 07.4          15.6 VrEB039H21
         K14B08R KC2014 01 24.29212608 07 52.30 +26 26 00.2          15.6 VrEB039H21
         K14B08R KC2014 01 24.29567608 07 50.81 +26 24 53.3          15.6 VrEB039H21
         K14B08R  C2014 01 24.41760 08 07 02.18 +25 46 48.5          15.7 RqEB039H36
         K14B08R  C2014 01 24.42104 08 07 00.86 +25 45 44.7          16.2 RqEB039H36
         K14B08R  C2014 01 24.42670 08 06 58.63 +25 43 57.6          15.7 RqEB039H36
         K14B08R  C2014 01 24.47752 08 06 54.69 +25 28 37.3          16.7 VqEB039900
         K14B08R  C2014 01 24.48013 08 06 53.68 +25 27 49.9          16.6 VqEB039900
         K14B08R  C2014 01 24.48264 08 06 52.69 +25 27 04.7          16.7 VqEB039900
         K14B08R  C2014 01 24.48595 08 06 51.39 +25 26 04.4          16.6 VqEB039900
         K14B08R KC2014 01 24.82914 08 04 53.23 +23 42 30.2          16.2 RuEB039B49
         K14B08R KC2014 01 24.83244 08 04 52.03 +23 41 32.3          16.6 RuEB039B49
         K14B08R KC2014 01 24.83733 08 04 50.28 +23 40 06.7          16.1 RuEB039B49
    
    Observer details:
    900 Moriyama.  Observer Y. Ikari.  0.26-m f/7.0 reflector + CCD.
    B49 Paus Observatory, Sabadell.  Observer J. Camarasa.  0.30-m f/4 Newtonian
        reflector + CCD.
    H21 Astronomical Research Observatory, Westfield.  Observer R. Holmes.
        Measurers S. Foglia, L. Buzzi, H. Devore, A. Kostin, T. Linder, T. Lister,
        T. Vorobjov.  0.61-m f/4.0 astrograph + CCD.
    H36 Sandlot Observatory, Scranton.  Observer G. Hug.  0.56-m reflector + CCD.
    J75 OAM Observatory, La Sagra.  Observers S. Sanchez, J. Nomen, M. Hurtado,
        J. A. Jaume, W. K. Y. Yeung, F. Serra, T. Valls, I. Mas, J. Marcus.
        0.45-m f/2.8 reflector + CCD.
    
    Orbital elements:
    2014 BR8                                                 Earth MOID = 0.0519 AU
    Epoch 2013 Nov. 4.0 TT = JDT 2456600.5                  MPC
    M 342.29918              (2000.0)            P               Q
    n   0.73147168     Peri.  114.26919     +0.48032431     -0.84305394
    a   1.2199378      Node   304.82862     +0.65912485     +0.52895880
    e   0.2391741      Incl.   17.14390     +0.57865619     +0.09727609
    P   1.35           H   21.5           G   0.15           U   7
    Residuals in seconds of arc
    140123 J75  0.1-  0.2-    140124 J75  0.1+  0.0     140124 900  0.0   0.0
    140123 J75  0.0   0.2+    140124 H21  0.0   0.3-    140124 900  0.2+  0.1-
    140123 J75  0.4-  0.6-    140124 H21  0.1+  0.2-    140124 900  0.2+  0.2+
    140124 J75  0.1-  0.2+    140124 H21  0.1+  0.3-    140124 900  0.2+  0.1-
    140124 J75  0.2+  0.3+    140124 H36  0.0   0.1-    140124 B49  0.2-  0.2+
    140124 J75  0.2+  0.3+    140124 H36  0.2+  0.6+    140124 B49  0.3-  0.0
    140124 J75  0.3-  0.5+    140124 H36  0.3-  0.5-    140124 B49  0.0   0.0
    
    Ephemeris:
    2014 BR8                 a,e,i = 1.22, 0.24, 17                  q = 0.9282
    Date    TT    R. A. (2000) Decl.     Delta      r     Elong.  Phase     V
    2013 12 25    18 29 49.5 +52 13 21   0.1610  0.9566    75.7    94.9    20.8
    ...
    2014 01 09    17 05 28.8 +69 24 21   0.08512 0.9940    94.7    80.4    18.9
    ...
    2014 01 17    10 12 40.7 +68 58 38   0.05562 1.0185   127.5    50.1    17.1
    ...
    2014 01 23    08 16 58.3 +33 33 18   0.05582 1.0385   166.0    13.3    16.1
    2014 01 24    08 09 46.2 +27 59 10   0.05830 1.0419   170.7     8.7    16.0
    2014 01 25    08 03 50.8 +22 53 44   0.06135 1.0454   173.1     6.5    16.0
    ...
    2014 01 31    07 43 21.9 +02 05 49   0.08798 1.0667   157.0    21.2    17.4
    ...
    2014 02 08    07 33 43.0 -09 56 45   0.1344  1.0963   142.6    33.1    18.7
    ...
    2014 02 23    07 34 18.3 -16 58 45   0.2330  1.1534   130.1    41.0    20.3
    
    A. U. Tomatic                (C) Copyright 2014 MPC           M.P.E.C. 2014-B39
    

    Read MPEC 2014-B38 Read MPEC 2014-B40


    MPEC number:

    Enter an MPEC number in one of the following forms:

    • 1997-B01 (the full form)
    • J97B01 (the packed version of the full form)
    • B01 (the abbreviated form)